Wind_Speed
42 43 43 42 42 43 43 44 44 41 38 37 39 35 34 37 35 39 31 32 30 29 20 19 24 20 13 13 9 11 7 2 3 4 3 3 3 3 2 1 3 5 5 3 2 2 8 3 4 2 5 18 18 19
37 37 38 39 39 40 39 37 35 36 35 35 32 31 31 31 32 31 46 39 41 31 28 27 19 24 15 27 31 6 6 4 6 4 1 3 2 2 4 3 2 2 5 4 7 6 7 7 8 21 22 24 27 24
33 34 35 34 34 33 34 34 34 33 33 34 33 32 28 24 25 36 41 45 51 38 29 28 24 20 17 17 20 8 4 5 5 7 3 2 3 3 4 4 4 3 5 3 1 5 7 20 20 20 23 31 28 24
31 31 31 30 30 31 31 31 30 30 30 31 32 32 29 29 31 34 31 24 28 16 6 8 18 18 14 12 9 11 20 17 17 10 4 2 2 4 3 2 4 5 4 4 4 11 16 27 28 25 25 23 23 22
29 29 29 29 29 28 27 26 26 26 26 25 25 27 27 27 24 23 26 23 15 12 5 9 19 14 10 10 12 14 17 21 14 4 3 2 1 2 1 0 4 8 6 4 6 15 14 16 22 21 21 29 31 22
26 26 27 27 27 26 26 25 24 23 22 22 20 18 20 26 25 22 20 25 27 33 14 3 8 12 15 12 15 15 15 14 6 6 2 3 4 5 2 3 5 13 18 22 11 24 22 23 29 36 32 31 20 17
22 22 23 23 24 24 24 22 21 21 23 23 24 24 19 11 4 12 9 9 12 13 7 3 2 5 10 13 8 10 9 5 4 5 4 7 6 8 2 4 4 11 16 23 28 29 23 26 15 12 15 19 20 23
19 18 19 18 18 18 18 18 18 17 16 17 19 20 21 23 25 23 18 11 11 12 7 3 1 4 5 4 3 4 6 6 5 5 4 3 3 5 4 11 19 25 24 20 17 14 17 17 18 17 16 18 17 19
16 15 15 15 15 15 15 14 13 11 11 11 12 12 11 15 10 11 13 13 15 9 4 4 3 2 3 4 4 3 3 1 2 2 3 5 3 5 10 9 17 15 8 8 8 10 12 15 14 17 15 17 19 20
12 13 13 11 11 12 13 12 11 8 6 6 5 6 6 6 7 5 4 4 5 7 5 2 2 1 4 2 2 3 2 1 1 4 7 3 3 21 23 24 21 17 16 10 8 10 13 17 16 15 11 17 20 23
8 9 10 11 10 10 11 11 13 7 6 5 6 5 4 4 2 2 3 4 2 3 3 3 3 3 2 3 2 2 2 2 2 2 3 2 3 4 4 4 7 4 2 4 6 9 12 14 16 16 16 17 19 19
7 7 7 8 9 10 9 8 9 13 9 7 6 4 2 2 3 5 1 1 3 2 2 3 3 3 4 3 3 1 1 1 3 5 1 2 3 4 2 5 4 2 4 8 12 15 16 16 16 16 19 19 18 19
6 6 6 6 6 7 8 9 9 8 4 4 3 2 3 4 7 3 1 2 2 3 5 4 2 4 3 3 2 2 1 3 2 2 3 3 1 6 5 4 3 7 11 14 15 14 15 16 16 16 18 16 15 17
7 7 8 7 6 5 6 6 8 7 4 3 3 4 3 2 1 2 2 3 3 5 9 8 4 2 3 2 2 3 3 1 2 0 3 2 4 5 5 7 9 11 13 14 15 15 16 16 17 15 14 15 15 17
9 9 8 7 5 6 6 5 6 7 3 2 1 1 2 3 1 3 2 4 4 2 6 4 2 6 2 2 3 2 1 3 4 3 2 1 4 6 7 10 14 14 14 15 15 16 16 15 15 15 14 14 13 16
9 6 5 7 6 5 6 5 5 5 3 1 2 2 2 2 3 3 6 5 4 5 6 3 2 1 3 2 5 6 3 4 2 2 2 2 3 5 4 8 14 12 12 13 13 14 15 15 15 15 14 15 15 18
10 5 5 6 7 4 3 4 3 3 1 1 3 7 8 5 5 3 5 6 7 5 2 2 4 6 1 2 3 3 3 3 3 3 1 3 4 3 6 10 13 14 10 10 12 13 13 14 15 15 16 18 14 13
10 10 9 8 7 6 4 3 3 2 4 7 3 5 13 9 5 6 7 9 9 5 5 4 3 4 4 3 3 3 4 7 5 3 3 4 4 6 8 12 12 9 8 10 11 12 13 14 16 18 16 15 13 11
10 9 8 8 9 9 3 5 6 3 11 5 9 14 8 8 14 15 13 11 12 8 5 4 3 3 4 3 2 7 9 6 6 6 6 7 8 10 11 7 6 8 10 10 11 12 12 13 15 16 16 13 12 10
12 11 9 10 14 5 4 5 8 4 4 7 10 10 10 10 11 10 14 16 16 8 3 3 4 6 7 8 10 12 10 7 7 6 5 4 5 5 4 5 4 6 9 8 9 12 12 12 9 12 13 13 9 9
12 8 7 8 6 7 6 4 6 5 5 6 7 12 5 11 14 13 9 15 12 6 3 12 14 14 13 11 11 10 9 7 5 4 3 4 3 4 4 5 4 5 9 8 8 11 12 12 12 12 12 10 9 9
7 4 4 4 5 5 7 9 6 3 6 6 3 7 4 3 5 8 11 10 6 12 15 18 19 20 16 15 13 12 10 9 7 6 4 5 1 4 6 3 4 6 6 5 8 9 11 12 12 11 11 10 8 9
7 4 4 4 3 4 7 7 6 7 4 3 6 3 3 3 8 14 5 9 11 14 18 20 18 19 17 17 17 14 11 9 7 6 5 3 2 2 3 4 5 5 5 6 8 9 8 10 11 11 11 9 9 7
4 4 3 4 7 4 4 4 6 5 7 3 3 4 4 4 13 4 2 4 15 8 10 13 16 21 21 21 20 16 10 6 4 5 5 5 4 4 4 7 6 4 4 4 6 6 7 10 11 11 10 9 8 8
2 3 3 3 2 3 3 4 4 4 4 3 2 3 4 5 5 2 3 6 19 22 14 12 17 21 25 23 17 12 7 4 4 7 6 5 6 6 3 5 3 3 5 6 8 11 13 12 12 11 11 10 8 8
1 3 5 4 4 3 3 3 3 3 4 2 3 7 5 3 5 4 2 9 15 21 21 19 20 21 18 11 8 4 2 3 2 1 3 5 5 5 5 5 4 3 5 5 6 9 10 10 11 10 11 10 9 8
2 3 3 5 6 6 5 5 5 3 4 4 4 4 4 4 3 2 4 11 10 11 12 12 12 12 10 7 5 4 6 7 4 1 1 3 2 2 4 5 5 4 6 6 7 9 10 11 12 11 11 8 7 8
2 4 0 10 5 3 2 3 3 4 3 7 6 4 2 3 2 3 5 6 5 5 7 8 8 7 6 6 6 6 5 4 1 7 10 6 2 2 2 3 5 7 8 10 12 12 11 11 11 10 10 9 7 8
3 6 7 4 3 3 4 3 2 3 7 5 2 2 2 4 3 3 5 4 4 4 5 6 6 7 6 6 6 6 6 6 4 5 6 6 7 7 9 10 11 12 14 14 14 14 14 14 13 12 11 12 11 13
3 8 2 1 2 1 2 4 6 10 11 9 5 4 6 6 7 4 4 5 8 10 9 8 9 9 10 9 5 3 4 4 5 5 6 8 10 12 13 13 13 13 13 13 14 13 14 14 14 13 12 11 9 9
2 2 1 1 2 1 5 9 13 13 11 6 4 6 9 9 7 9 10 10 9 8 7 6 6 8 10 11 11 10 6 5 6 8 9 9 11 13 14 15 16 16 15 15 14 14 15 14 14 16 16 15 13 12
4 3 1 2 4 5 6 11 8 4 6 4 5 5 9 5 3 2 6 9 10 12 11 9 8 10 12 10 10 10 13 15 13 10 11 12 15 16 16 15 15 15 15 15 14 15 15 15 14 14 13 14 13 12
1 1 1 2 4 6 5 8 6 11 4 3 4 4 3 3 3 5 2 8 11 11 13 13 14 15 16 13 12 12 13 12 10 13 15 17 18 19 19 18 17 16 15 14 13 13 12 11 10 10 10 11 13 14
Wind_Direction
49 53 57 59 60 66 73 79 84 87 89 96 100 107 117 120 130 134 115 127 128 94 107 140 135 135 143 115 130 158 102 11 58 78 119 171 151 184 162 191 176 163 158 186 107 163 254 54 17 217 285 311 298 293
49 51 54 57 61 65 70 74 78 79 82 82 90 95 102 115 116 111 99 108 118 103 106 122 131 149 143 150 130 124 143 125 150 98 122 112 129 119 160 197 170 234 190 191 172 212 217 205 231 272 286 276 287 286
50 53 55 56 59 62 66 69 72 74 76 78 80 82 92 105 113 114 108 108 104 99 88 92 82 97 121 138 147 119 100 120 111 103 137 130 125 140 160 214 193 248 196 199 112 258 245 264 264 269 261 278 286 296
49 52 56 59 61 63 66 69 74 78 79 81 82 83 89 102 113 120 112 115 113 99 87 70 105 100 110 136 137 140 139 130 118 105 84 116 145 181 201 217 194 199 159 198 255 279 276 260 257 261 273 278 295 294
49 52 55 57 60 65 68 70 74 78 82 82 81 84 90 97 109 114 113 101 101 100 125 91 97 99 113 119 121 131 143 135 128 89 82 158 166 121 241 295 233 181 204 187 238 246 240 266 276 288 291 288 288 281
51 52 54 56 58 59 63 68 73 77 80 79 79 86 101 108 103 94 75 84 96 111 104 86 97 104 132 117 132 144 142 136 121 125 155 183 195 163 173 240 232 219 236 239 241 271 272 278 287 289 280 279 267 271
52 54 55 56 57 60 64 69 73 77 76 75 77 76 81 92 117 80 88 72 87 104 98 73 33 80 120 149 143 151 155 137 143 149 170 172 193 189 209 244 172 246 244 264 267 267 277 279 273 298 279 270 277 283
49 50 53 57 60 62 63 65 68 74 76 76 77 78 77 81 93 82 77 77 86 81 72 92 324 73 96 104 91 165 164 169 185 182 149 172 159 187 248 249 261 259 261 267 264 252 252 282 296 297 292 287 288 285
49 51 50 50 51 52 52 52 55 62 72 81 81 67 70 56 45 53 65 69 63 67 95 76 112 193 135 115 129 135 146 55 176 149 213 154 190 220 230 241 243 253 245 263 290 276 279 291 296 300 294 293 292 289
42 45 46 44 39 37 38 39 36 39 50 45 46 43 52 48 61 35 41 54 48 46 57 94 140 115 134 118 40 87 42 191 182 230 143 194 250 248 252 252 266 286 302 304 306 315 313 305 300 294 276 288 287 290
26 33 38 38 34 30 30 32 25 12 16 39 47 59 80 57 51 59 66 64 3 45 65 118 132 136 92 97 145 175 187 205 225 229 143 230 258 242 239 98 14 337 266 272 290 296 298 295 297 298 297 297 299 293
2 9 14 19 23 26 26 26 30 38 54 63 90 94 56 49 39 76 26 335 53 124 161 123 129 114 117 114 97 154 213 86 249 145 162 256 255 285 343 2 353 338 319 315 315 314 313 315 311 304 301 299 292 287
336 340 345 354 359 5 12 18 23 31 35 41 50 55 24 360 38 88 84 4 58 160 151 137 106 124 108 143 124 86 72 234 75 54 227 232 302 58 62 65 295 305 312 314 324 329 322 313 308 307 305 303 297 295
350 337 329 327 326 335 341 355 9 13 21 44 35 2 110 330 298 179 150 149 147 140 164 144 127 155 155 127 155 192 217 86 11 232 239 336 44 58 22 348 328 328 332 330 328 326 323 319 315 313 311 308 303 307
336 342 340 334 316 309 303 320 345 359 1 60 43 246 228 238 284 200 10 128 150 173 155 124 149 165 162 195 184 203 177 235 204 224 172 150 18 357 348 340 334 326 321 324 325 326 329 327 322 319 319 313 310 315
312 326 319 333 313 288 284 300 318 337 330 13 209 242 237 37 304 195 215 181 168 151 118 87 134 180 220 211 191 208 193 216 203 209 188 263 303 304 322 342 335 328 326 324 321 322 325 326 324 322 324 317 306 307
303 283 280 305 305 297 276 279 310 276 305 266 255 237 250 278 237 206 180 176 171 165 164 135 193 209 214 232 210 184 211 154 189 204 218 326 317 279 313 324 322 326 321 322 322 328 327 331 325 320 317 324 314 315
287 282 278 286 288 280 250 230 265 266 255 236 236 237 221 227 220 214 193 194 185 181 167 199 147 209 216 218 200 170 159 176 200 240 284 286 286 302 305 308 307 307 304 324 332 329 331 334 329 332 331 336 329 324
291 299 277 259 256 271 245 217 217 242 232 233 245 246 238 244 250 255 256 244 220 213 177 178 227 213 228 216 149 170 178 207 243 250 268 272 306 313 310 304 293 291 303 305 333 340 337 335 333 333 333 331 335 335
280 284 290 310 225 254 226 209 200 238 247 235 227 224 219 238 259 250 240 222 206 188 186 206 215 211 190 181 199 211 210 217 230 250 240 244 274 293 293 324 322 295 314 308 323 340 339 335 332 332 347 346 337 340
293 299 288 269 290 247 257 260 203 219 245 250 269 227 241 236 238 231 207 206 197 197 223 224 228 220 207 215 201 200 205 205 198 217 253 274 288 272 280 306 314 315 323 326 334 350 350 348 350 352 354 357 2 351
284 302 268 256 240 242 250 231 235 228 203 234 242 214 229 210 211 204 185 186 214 224 226 238 235 211 212 199 193 182 184 178 202 215 242 273 322 6 16 5 337 332 337 331 332 340 354 1 359 352 346 351 351 356
262 261 245 249 273 252 256 217 207 209 216 227 208 206 248 218 217 179 192 213 224 238 239 237 233 223 215 179 177 175 182 194 215 237 214 179 155 321 344 330 316 297 330 330 324 320 328 336 343 350 352 339 344 351
221 207 221 229 218 263 247 234 226 258 208 225 212 218 231 210 171 189 199 66 354 331 240 230 204 174 170 175 174 174 172 183 195 193 177 184 226 260 327 338 343 349 290 299 316 326 322 325 323 319 329 335 329 318
269 208 248 257 304 307 272 328 314 249 272 233 248 275 348 284 188 126 57 10 359 15 52 155 166 164 154 153 148 152 165 182 185 201 224 258 287 291 303 303 346 341 315 309 309 313 312 310 310 311 296 310 309 319
185 5 20 354 316 306 333 310 18 349 291 305 351 334 328 47 35 38 58 15 27 33 51 77 97 104 94 100 108 111 18 323 323 33 177 253 289 276 258 267 282 279 308 327 333 343 350 343 334 324 316 287 295 299
38 327 343 15 315 307 314 311 328 10 5 357 353 331 355 47 54 64 68 33 55 48 50 55 65 76 75 68 54 24 3 341 312 216 269 325 324 262 226 202 211 250 277 296 313 326 331 340 345 331 327 291 280 281
51 55 331 320 308 305 222 336 30 9 352 342 340 5 39 34 61 47 60 66 46 36 49 53 56 53 38 24 1 341 328 338 341 181 190 206 223 254 270 260 261 264 271 285 293 299 298 305 310 327 324 300 278 277
63 11 346 337 342 25 33 30 0 331 335 337 334 358 67 60 42 116 79 44 16 13 24 19 9 358 338 320 306 311 314 320 316 241 259 280 286 281 297 296 291 287 284 283 284 286 284 287 292 292 298 312 292 271
349 358 333 341 119 111 14 345 314 320 321 299 271 133 100 93 82 84 67 43 35 33 21 5 352 348 355 354 336 265 289 288 307 321 333 329 325 318 318 314 308 302 299 295 291 287 275 275 277 279 291 290 283 268
303 322 336 334 290 216 328 327 324 315 292 279 279 184 144 136 105 67 53 37 15 2 356 356 355 349 347 342 336 327 307 262 294 291 292 307 320 319 314 311 309 306 303 301 299 294 289 286 280 275 274 273 265 272
357 37 79 318 295 326 325 341 326 315 355 22 34 121 127 129 106 116 29 11 0 10 18 12 359 356 347 336 326 318 309 307 298 290 281 291 303 310 313 309 304 303 300 297 294 293 293 288 282 279 275 268 259 246
14 106 30 326 338 347 346 341 0 359 36 53 39 44 78 119 151 168 127 31 20 20 7 353 342 333 330 326 318 312 314 305 281 277 283 291 296 299 302 307 308 307 303 299 294 292 291 290 284 277 268 245 224 208
Height
1277 1271 1265 1259 1256 1254 1252 1252 1253 1254 1254 1258 1260 1263 1267 1270 1277 1277 1283 1286 1281 1288 1321 1334 1341 1350 1355 1350 1364 1380 1388 1391 1399 1412 1415 1421 1419 1420 1423 1420 1423 1427 1446 1452 1453 1459 1442 1422 1421 1424 1421 1416 1417 1415
1292 1287 1282 1278 1274 1271 1269 1268 1268 1268 1268 1267 1271 1274 1275 1278 1279 1277 1281 1293 1295 1307 1334 1341 1349 1352 1349 1353 1362 1376 1380 1386 1392 1406 1413 1416 1419 1427 1422 1426 1422 1432 1425 1429 1434 1432 1416 1415 1414 1415 1415 1413 1411 1409
1305 1301 1297 1293 1290 1287 1285 1284 1283 1282 1282 1281 1282 1281 1284 1289 1292 1293 1298 1305 1307 1320 1337 1343 1350 1354 1356 1362 1367 1374 1382 1386 1389 1390 1401 1411 1413 1419 1427 1423 1419 1419 1417 1423 1422 1412 1412 1411 1411 1409 1410 1408 1405 1402
1316 1312 1309 1307 1304 1301 1299 1297 1296 1295 1295 1295 1295 1296 1299 1301 1303 1305 1308 1313 1316 1324 1341 1355 1356 1359 1364 1367 1369 1373 1378 1383 1388 1394 1401 1411 1416 1413 1418 1414 1417 1414 1413 1414 1414 1409 1409 1405 1404 1403 1403 1402 1400 1397
1326 1322 1319 1316 1314 1313 1311 1309 1308 1308 1308 1308 1308 1308 1309 1310 1312 1313 1315 1319 1323 1329 1345 1355 1362 1368 1371 1372 1374 1377 1380 1383 1390 1399 1405 1412 1412 1414 1413 1415 1411 1407 1407 1413 1408 1401 1402 1399 1398 1398 1396 1396 1395 1393
1336 1332 1329 1326 1323 1321 1319 1319 1319 1319 1319 1318 1317 1317 1318 1318 1319 1320 1324 1330 1333 1337 1347 1365 1371 1373 1375 1377 1379 1381 1383 1386 1391 1396 1403 1406 1408 1411 1418 1413 1396 1395 1395 1395 1394 1393 1394 1394 1392 1390 1389 1387 1387 1386
1344 1342 1339 1336 1333 1331 1329 1328 1328 1326 1325 1326 1326 1326 1325 1324 1323 1326 1338 1342 1341 1344 1351 1365 1371 1373 1375 1379 1383 1385 1386 1388 1392 1397 1401 1404 1406 1409 1411 1401 1384 1389 1389 1388 1389 1391 1388 1387 1386 1385 1384 1382 1381 1380
1351 1348 1346 1345 1343 1341 1339 1337 1335 1333 1333 1334 1333 1332 1331 1331 1333 1337 1341 1345 1345 1346 1354 1367 1375 1373 1376 1380 1384 1386 1388 1390 1392 1393 1398 1400 1403 1402 1399 1381 1380 1385 1385 1381 1381 1382 1382 1381 1379 1378 1377 1376 1375 1374
1358 1355 1353 1351 1349 1347 1345 1343 1342 1341 1341 1340 1338 1337 1337 1338 1341 1346 1346 1347 1347 1353 1359 1367 1377 1386 1379 1382 1385 1388 1388 1394 1391 1392 1394 1396 1396 1393 1377 1377 1379 1379 1379 1377 1376 1376 1376 1375 1374 1373 1373 1372 1370 1368
1363 1361 1358 1356 1354 1353 1351 1350 1349 1347 1346 1345 1344 1343 1347 1351 1352 1352 1353 1353 1354 1360 1366 1373 1376 1380 1381 1381 1384 1386 1387 1392 1396 1391 1391 1390 1383 1373 1372 1372 1372 1372 1372 1372 1371 1371 1371 1371 1371 1369 1368 1366 1365 1363
1368 1365 1363 1361 1359 1357 1356 1354 1353 1351 1350 1349 1350 1354 1356 1356 1356 1356 1358 1361 1364 1370 1371 1374 1376 1377 1378 1380 1384 1386 1391 1390 1390 1385 1387 1385 1380 1369 1367 1368 1368 1368 1369 1370 1371 1370 1369 1367 1366 1364 1362 1361 1359 1357
1370 1368 1366 1364 1363 1361 1360 1358 1356 1354 1354 1355 1355 1357 1357 1357 1356 1359 1366 1364 1365 1369 1371 1372 1373 1375 1378 1380 1383 1387 1386 1388 1382 1382 1385 1383 1370 1364 1365 1366 1367 1368 1369 1370 1369 1367 1365 1364 1362 1360 1357 1355 1353 1352
1371 1369 1368 1366 1365 1363 1362 1360 1359 1357 1357 1356 1356 1356 1357 1360 1367 1363 1372 1368 1372 1366 1369 1371 1373 1375 1379 1381 1382 1386 1388 1389 1382 1394 1383 1372 1367 1367 1366 1366 1368 1368 1368 1367 1365 1364 1362 1361 1358 1356 1352 1350 1348 1346
1371 1369 1368 1367 1366 1364 1363 1362 1360 1359 1358 1357 1358 1365 1365 1368 1363 1361 1362 1363 1363 1365 1367 1370 1373 1375 1377 1380 1382 1384 1382 1382 1392 1390 1374 1372 1369 1368 1367 1368 1368 1367 1366 1364 1363 1362 1359 1357 1354 1352 1349 1347 1344 1342
1371 1370 1368 1367 1366 1365 1364 1363 1362 1360 1359 1359 1360 1369 1363 1360 1360 1360 1361 1363 1364 1366 1367 1370 1372 1374 1375 1377 1378 1377 1380 1383 1378 1379 1370 1371 1370 1369 1368 1367 1367 1365 1364 1363 1361 1359 1356 1353 1351 1348 1346 1343 1341 1339
1370 1370 1368 1367 1365 1365 1364 1364 1363 1362 1360 1361 1361 1361 1360 1361 1362 1361 1361 1362 1364 1365 1366 1368 1371 1372 1371 1371 1369 1372 1369 1373 1371 1369 1368 1368 1368 1367 1366 1366 1366 1364 1362 1360 1358 1356 1353 1351 1348 1345 1343 1340 1338 1335
1369 1369 1368 1367 1366 1365 1365 1365 1365 1363 1361 1361 1359 1358 1359 1359 1359 1359 1360 1361 1363 1364 1368 1368 1371 1369 1369 1366 1364 1362 1365 1363 1363 1365 1366 1365 1365 1365 1364 1364 1363 1361 1360 1358 1355 1353 1351 1348 1345 1342 1339 1337 1334 1332
1366 1366 1366 1366 1365 1365 1365 1365 1365 1363 1361 1358 1358 1354 1355 1355 1355 1356 1357 1359 1361 1362 1364 1365 1365 1365 1363 1360 1359 1359 1359 1360 1362 1362 1362 1362 1362 1362 1362 1361 1360 1359 1357 1355 1353 1351 1348 1345 1342 1340 1337 1334 1332 1330
1364 1363 1363 1364 1364 1365 1364 1363 1363 1360 1355 1355 1352 1351 1352 1351 1350 1352 1354 1356 1357 1359 1360 1361 1361 1359 1358 1353 1354 1356 1357 1358 1359 1359 1360 1360 1359 1359 1358 1357 1356 1355 1354 1352 1350 1348 1346 1343 1341 1338 1336 1333 1331 1330
1361 1360 1360 1360 1361 1360 1358 1357 1357 1356 1352 1348 1347 1346 1346 1345 1345 1346 1348 1350 1353 1355 1356 1356 1351 1347 1348 1349 1352 1354 1355 1355 1356 1357 1357 1357 1357 1356 1355 1354 1353 1352 1351 1350 1349 1346 1344 1342 1340 1337 1335 1332 1330 1329
1357 1357 1357 1357 1358 1357 1356 1351 1350 1350 1348 1345 1342 1342 1341 1340 1340 1341 1343 1346 1348 1347 1346 1341 1340 1342 1344 1345 1348 1350 1351 1352 1353 1354 1354 1354 1355 1353 1353 1351 1351 1350 1349 1348 1347 1345 1343 1341 1338 1336 1334 1332 1331 1329
1355 1355 1355 1355 1355 1353 1350 1346 1345 1344 1344 1340 1339 1338 1336 1336 1335 1335 1337 1340 1338 1335 1334 1333 1335 1338 1339 1342 1344 1347 1349 1350 1351 1352 1352 1352 1352 1351 1350 1350 1349 1348 1347 1346 1346 1345 1343 1341 1338 1336 1335 1333 1331 1330
1354 1354 1354 1353 1352 1348 1344 1341 1341 1338 1338 1334 1332 1332 1330 1328 1325 1327 1330 1328 1326 1326 1326 1328 1330 1333 1336 1340 1343 1345 1347 1348 1349 1350 1350 1350 1350 1349 1349 1348 1347 1346 1346 1345 1344 1343 1342 1341 1339 1337 1335 1333 1332 1331
1352 1353 1352 1350 1349 1345 1340 1336 1334 1331 1329 1328 1327 1325 1321 1318 1319 1321 1322 1326 1330 1327 1325 1325 1327 1330 1334 1337 1339 1342 1345 1346 1347 1347 1347 1348 1347 1347 1347 1346 1345 1345 1344 1343 1343 1342 1341 1339 1338 1336 1335 1333 1332 1331
1353 1350 1351 1346 1344 1341 1335 1337 1331 1327 1328 1324 1325 1320 1317 1315 1312 1314 1327 1336 1333 1329 1324 1324 1325 1328 1330 1333 1338 1340 1342 1344 1345 1346 1346 1345 1345 1344 1345 1345 1344 1344 1343 1342 1341 1340 1339 1337 1335 1334 1333 1332 1331 1330
1353 1351 1351 1349 1346 1344 1340 1340 1334 1334 1329 1327 1325 1324 1322 1322 1328 1332 1338 1340 1338 1335 1331 1329 1329 1330 1333 1337 1338 1340 1341 1342 1342 1343 1343 1342 1342 1342 1342 1342 1342 1342 1341 1340 1339 1337 1336 1334 1333 1332 1331 1330 1330 1329
1355 1354 1352 1351 1349 1348 1345 1340 1338 1337 1337 1338 1334 1331 1328 1334 1335 1341 1342 1342 1341 1340 1339 1337 1336 1337 1338 1339 1340 1341 1341 1341 1341 1342 1341 1340 1340 1340 1340 1339 1339 1339 1338 1338 1337 1336 1334 1333 1331 1330 1329 1328 1328 1328
1353 1354 1356 1352 1349 1348 1349 1346 1346 1346 1344 1342 1339 1337 1337 1339 1344 1347 1346 1345 1344 1344 1342 1341 1340 1340 1340 1340 1340 1340 1340 1341 1341 1340 1339 1340 1340 1340 1339 1338 1337 1336 1336 1335 1334 1333 1332 1331 1329 1328 1327 1326 1326 1326
1352 1353 1352 1351 1349 1349 1349 1349 1350 1348 1347 1345 1345 1343 1344 1346 1347 1347 1347 1346 1345 1344 1343 1342 1342 1341 1340 1340 1340 1339 1339 1340 1340 1339 1338 1337 1337 1337 1336 1335 1334 1333 1332 1331 1330 1329 1328 1327 1326 1325 1324 1323 1322 1322
1353 1353 1352 1352 1353 1351 1351 1350 1349 1347 1345 1344 1344 1344 1346 1349 1349 1348 1347 1346 1344 1344 1343 1343 1342 1341 1340 1339 1338 1339 1338 1338 1338 1338 1336 1334 1333 1333 1331 1330 1329 1328 1327 1326 1324 1324 1323 1322 1322 1322 1321 1320 1320 1319
1352 1352 1352 1352 1351 1350 1349 1348 1346 1344 1342 1341 1340 1341 1344 1348 1349 1349 1348 1347 1347 1346 1345 1343 1342 1341 1339 1338 1336 1336 1336 1335 1335 1334 1334 1332 1331 1329 1328 1327 1325 1324 1322 1321 1319 1318 1318 1317 1316 1316 1316 1316 1316 1316
1351 1352 1353 1354 1350 1349 1348 1346 1344 1343 1341 1341 1341 1342 1345 1346 1348 1350 1349 1348 1346 1345 1343 1342 1341 1340 1339 1337 1336 1335 1333 1331 1330 1330 1330 1329 1328 1326 1325 1324 1322 1320 1318 1316 1314 1313 1313 1312 1311 1310 1310 1310 1311 1311
1351 1351 1352 1351 1350 1349 1348 1348 1345 1344 1343 1343 1344 1344 1344 1346 1347 1349 1348 1347 1346 1344 1343 1342 1340 1338 1336 1334 1332 1331 1330 1328 1327 1326 1326 1325 1323 1322 1320 1318 1316 1314 1313 1311 1310 1309 1308 1308 1307 1306 1306 1306 1307 1308